TAP204A KEWR-LPPT

Flight info

Callsign TAP204A
Flight time N/A
Altitude 37000
Route ELVAE DCT NECCK DCT DIXIE Y481 POPPN DCT ISLES DCT JENYY DCT JOBOC/M080F370 DCT 42N060W 42N050W/M080F390 4130N04000W 3930N03000W DCT LENSI DCT GUNTI/N0446F390 DCT LAZET
Aircraft A339/H-SADE1E2E3GHIJ1J3J5M1P2RWXYZ/LB2D1

Departure

Time 2026-04-22 04:55
Airport Newark Liberty International Airport (KEWR)

Arrival

Time N/A
Airport Lisbon Humberto Delgado Airport (LPPT)
Time Latitude Longitude Altitude Speed Heading
2026-04-22 04:16 40.69143 -74.17369 28 ft 0 kts 322°
2026-04-22 04:40 40.69142 -74.17368 28 ft 2 kts 321°
2026-04-22 04:40 40.69125 -74.17348 26 ft 4 kts 343°
2026-04-22 04:41 40.69105 -74.17341 25 ft 4 kts 351°
2026-04-22 04:41 40.69093 -74.17339 26 ft 0 kts 351°
2026-04-22 04:47 40.69097 -74.17339 26 ft 1 kts 353°
2026-04-22 04:47 40.69122 -74.17322 25 ft 7 kts 36°
2026-04-22 04:47 40.69139 -74.17224 28 ft 14 kts 95°
2026-04-22 04:48 40.69127 -74.17106 27 ft 11 kts 63°
2026-04-22 04:48 40.69194 -74.17053 28 ft 13 kts 26°
2026-04-22 04:48 40.69285 -74.16995 28 ft 16 kts 25°
2026-04-22 04:48 40.69394 -74.16925 28 ft 18 kts 26°
2026-04-22 04:49 40.69509 -74.16852 28 ft 19 kts 26°
2026-04-22 04:49 40.69628 -74.16776 28 ft 14 kts 26°
2026-04-22 04:49 40.69673 -74.16712 28 ft 6 kts 91°
2026-04-22 04:49 40.69656 -74.16648 28 ft 8 kts 111°
2026-04-22 04:50 40.69631 -74.16577 28 ft 10 kts 115°
2026-04-22 04:50 40.69609 -74.16486 28 ft 9 kts 84°
2026-04-22 04:50 40.69653 -74.16440 27 ft 11 kts 31°
2026-04-22 04:50 40.69744 -74.16382 27 ft 17 kts 25°
2026-04-22 04:51 40.69858 -74.16310 27 ft 20 kts 26°
2026-04-22 04:51 40.69990 -74.16226 27 ft 22 kts 26°
2026-04-22 04:51 40.70128 -74.16138 26 ft 22 kts 26°
2026-04-22 04:51 40.70237 -74.16061 28 ft 13 kts 43°
2026-04-22 04:52 40.70252 -74.15988 28 ft 0 kts 84°
2026-04-22 04:52 40.70252 -74.15985 28 ft 1 kts 84°
2026-04-22 04:52 40.70253 -74.15968 28 ft 3 kts 84°
2026-04-22 04:53 40.70252 -74.15922 28 ft 8 kts 98°
2026-04-22 04:53 40.70214 -74.15878 29 ft 7 kts 167°
2026-04-22 04:53 40.70172 -74.15892 30 ft 6 kts 199°
2026-04-22 04:53 40.70132 -74.15916 30 ft 7 kts 206°
2026-04-22 04:54 40.70099 -74.15937 29 ft 0 kts 205°
2026-04-22 04:54 40.69808 -74.16123 27 ft 92 kts 206°
2026-04-22 04:54 40.68991 -74.16644 58 ft 161 kts 204°
2026-04-22 04:55 40.67960 -74.17321 770 ft 170 kts 205°
2026-04-22 04:55 40.66780 -74.17634 1564 ft 182 kts 179°
2026-04-22 04:55 40.65462 -74.17477 2170 ft 197 kts 180°
2026-04-22 04:55 40.64062 -74.17696 2665 ft 213 kts 195°
2026-04-22 04:56 40.62570 -74.18407 2813 ft 238 kts 204°
2026-04-22 04:56 40.61046 -74.19345 2910 ft 243 kts 206°
2026-04-22 04:56 40.59522 -74.20339 2982 ft 245 kts 207°
2026-04-22 04:56 40.57995 -74.21341 2991 ft 244 kts 208°
2026-04-22 04:57 40.56408 -74.22137 2987 ft 246 kts 192°
2026-04-22 04:57 40.54687 -74.22101 2993 ft 250 kts 174°
2026-04-22 04:57 40.52967 -74.21720 3027 ft 254 kts 171°
2026-04-22 04:57 40.51228 -74.21259 3623 ft 254 kts 171°
2026-04-22 04:58 40.49489 -74.20780 4323 ft 257 kts 172°
2026-04-22 04:58 40.47717 -74.20301 4938 ft 263 kts 172°
2026-04-22 04:58 40.45901 -74.19820 5484 ft 271 kts 173°
2026-04-22 04:58 40.44027 -74.19329 6051 ft 278 kts 173°
2026-04-22 04:59 40.42113 -74.18829 6655 ft 284 kts 174°
2026-04-22 04:59 40.40153 -74.18318 7219 ft 290 kts 174°
2026-04-22 04:59 40.38160 -74.17800 7824 ft 294 kts 174°
2026-04-22 04:59 40.36134 -74.17274 8413 ft 300 kts 174°
2026-04-22 05:00 40.34071 -74.16738 9014 ft 305 kts 174°
2026-04-22 05:00 40.31967 -74.16195 9622 ft 310 kts 175°
2026-04-22 05:00 40.29821 -74.15949 10186 ft 311 kts 187°
2026-04-22 05:00 40.27590 -74.16022 10391 ft 330 kts 188°
2026-04-22 05:01 40.25234 -74.16109 10577 ft 348 kts 187°
2026-04-22 05:01 40.22764 -74.16183 10968 ft 358 kts 186°
2026-04-22 05:01 40.20271 -74.16236 11573 ft 360 kts 186°
2026-04-22 05:01 40.17782 -74.16284 12171 ft 363 kts 186°
2026-04-22 05:02 40.15250 -74.16331 12763 ft 366 kts 186°
2026-04-22 05:02 40.12687 -74.15894 13306 ft 379 kts 167°
2026-04-22 05:02 40.10265 -74.14330 13898 ft 390 kts 146°
2026-04-22 05:02 40.08351 -74.11859 14410 ft 396 kts 126°
2026-04-22 05:03 40.07085 -74.08667 14933 ft 398 kts 106°
2026-04-22 05:03 40.06576 -74.05134 15430 ft 397 kts 92°
2026-04-22 05:03 40.06333 -74.01534 15918 ft 400 kts 92°
2026-04-22 05:03 40.05973 -73.97919 16453 ft 404 kts 96°
2026-04-22 05:04 40.05438 -73.94308 16960 ft 407 kts 100°
2026-04-22 05:04 40.04782 -73.90699 17477 ft 410 kts 102°
2026-04-22 05:04 40.04299 -73.88254 17826 ft 412 kts 102°
2026-04-22 05:04 40.03560 -73.84634 18329 ft 415 kts 103°
2026-04-22 05:05 40.02806 -73.80984 18800 ft 418 kts 103°
2026-04-22 05:05 40.02046 -73.77305 19224 ft 422 kts 103°
2026-04-22 05:05 40.01283 -73.73597 19659 ft 425 kts 103°
2026-04-22 05:05 40.00525 -73.69910 20077 ft 428 kts 103°
2026-04-22 05:06 39.99750 -73.66145 20495 ft 431 kts 103°
2026-04-22 05:06 39.98967 -73.62342 20843 ft 438 kts 102°
2026-04-22 05:06 39.98174 -73.58495 21300 ft 440 kts 102°
2026-04-22 05:06 39.97375 -73.54628 21773 ft 443 kts 102°
2026-04-22 05:07 39.96570 -73.50736 22217 ft 446 kts 102°
2026-04-22 05:07 39.95758 -73.46816 22658 ft 450 kts 102°
2026-04-22 05:07 39.94939 -73.42869 23116 ft 453 kts 102°
2026-04-22 05:07 39.94112 -73.38895 23575 ft 456 kts 102°
2026-04-22 05:08 39.93279 -73.34895 23999 ft 459 kts 102°
2026-04-22 05:08 39.92440 -73.30872 24396 ft 461 kts 102°
2026-04-22 05:08 39.91594 -73.26830 24805 ft 464 kts 102°
2026-04-22 05:08 39.90743 -73.22767 25194 ft 466 kts 102°
2026-04-22 05:09 39.89886 -73.18681 25591 ft 469 kts 102°
2026-04-22 05:09 39.89023 -73.14578 25985 ft 471 kts 102°
2026-04-22 05:09 39.88156 -73.10458 26391 ft 472 kts 103°
2026-04-22 05:09 39.87283 -73.06323 26762 ft 475 kts 103°
2026-04-22 05:10 39.86404 -73.02165 27128 ft 478 kts 103°
2026-04-22 05:10 39.85519 -72.97984 27503 ft 480 kts 103°
2026-04-22 05:10 39.84627 -72.93783 27893 ft 482 kts 103°
2026-04-22 05:10 39.83731 -72.89573 28287 ft 484 kts 103°
2026-04-22 05:11 39.82829 -72.85340 28621 ft 487 kts 103°
2026-04-22 05:11 39.81829 -72.81117 28949 ft 490 kts 108°
2026-04-22 05:11 39.80676 -72.76931 29279 ft 493 kts 108°
2026-04-22 05:11 39.79535 -72.72726 29617 ft 495 kts 108°
2026-04-22 05:12 39.78388 -72.68483 29941 ft 498 kts 108°
2026-04-22 05:12 39.77239 -72.64238 30264 ft 500 kts 108°
2026-04-22 05:12 39.76077 -72.59954 30608 ft 503 kts 108°
2026-04-22 05:12 39.74910 -72.55668 30863 ft 506 kts 108°
2026-04-22 05:13 39.73732 -72.51352 31173 ft 508 kts 108°
2026-04-22 05:13 39.72549 -72.47022 31486 ft 510 kts 108°
2026-04-22 05:13 39.71359 -72.42676 31778 ft 512 kts 108°
2026-04-22 05:13 39.70162 -72.38312 32068 ft 514 kts 108°
2026-04-22 05:14 39.68958 -72.33932 32353 ft 516 kts 108°
2026-04-22 05:14 39.67748 -72.29535 32640 ft 518 kts 108°
2026-04-22 05:14 39.66532 -72.25124 32913 ft 520 kts 108°
2026-04-22 05:14 39.65306 -72.20687 33063 ft 524 kts 108°
2026-04-22 05:15 39.64092 -72.16225 33293 ft 525 kts 107°
2026-04-22 05:15 39.62962 -72.11717 33476 ft 526 kts 106°
2026-04-22 05:15 39.61860 -72.07187 33652 ft 527 kts 106°
2026-04-22 05:15 39.60752 -72.02646 33797 ft 529 kts 106°
2026-04-22 05:16 39.59631 -71.98104 33991 ft 529 kts 106°
2026-04-22 05:16 39.58501 -71.93569 34212 ft 528 kts 106°
2026-04-22 05:16 39.57366 -71.89042 34398 ft 529 kts 106°
2026-04-22 05:16 39.56225 -71.84508 34538 ft 529 kts 106°
2026-04-22 05:17 39.55084 -71.79981 34743 ft 528 kts 107°
2026-04-22 05:17 39.53959 -71.75529 34937 ft 527 kts 107°
2026-04-22 05:17 39.52819 -71.71024 35133 ft 526 kts 107°
2026-04-22 05:17 39.51680 -71.66528 35332 ft 525 kts 107°
2026-04-22 05:18 39.49401 -71.57562 35715 ft 523 kts 107°
2026-04-22 05:18 39.48264 -71.53100 36003 ft 520 kts 107°
2026-04-22 05:18 39.47135 -71.48675 36266 ft 517 kts 107°
2026-04-22 05:19 39.46005 -71.44261 36452 ft 516 kts 107°
2026-04-22 05:19 39.44879 -71.39866 36626 ft 515 kts 107°
2026-04-22 05:19 39.43835 -71.35428 36787 ft 514 kts 101°
2026-04-22 05:19 39.43362 -71.30881 36940 ft 510 kts 89°
2026-04-22 05:20 39.43541 -71.26331 37099 ft 505 kts 78°
2026-04-22 05:20 39.44275 -71.21916 37243 ft 501 kts 73°
2026-04-22 05:20 39.45855 -71.13129 37344 ft 501 kts 73°
2026-04-22 05:21 39.47381 -71.04338 37342 ft 501 kts 74°
2026-04-22 05:21 39.48891 -70.95535 37342 ft 501 kts 74°
2026-04-22 05:22 39.50393 -70.86729 37348 ft 501 kts 74°
2026-04-22 05:22 39.51886 -70.77941 37340 ft 500 kts 74°
2026-04-22 05:23 39.53374 -70.69139 37338 ft 500 kts 74°
2026-04-22 05:23 39.54856 -70.60335 37338 ft 500 kts 74°